Year,Month,Day,Hour,Minute,Value (Times are PST for temperature in C)
2014,08,30,00,00,16.10
2014,08,30,00,01,16.10
2014,08,30,00,02,16.10
2014,08,30,00,03,16.10
2014,08,30,00,04,16.10
2014,08,30,00,05,16.10
2014,08,30,00,06,16.10
2014,08,30,00,07,16.10
2014,08,30,00,08,16.10
2014,08,30,00,09,16.10
2014,08,30,00,10,16.10
2014,08,30,00,11,16.10
2014,08,30,00,12,16.10
2014,08,30,00,13,16.10
2014,08,30,00,14,16.10
2014,08,30,00,15,16.10
2014,08,30,00,16,16.00
2014,08,30,00,17,16.00
2014,08,30,00,18,16.00
2014,08,30,00,19,16.00
2014,08,30,00,20,16.00
2014,08,30,00,21,16.00
2014,08,30,00,22,16.00
2014,08,30,00,23,16.00
2014,08,30,00,24,16.00
2014,08,30,00,25,16.10
2014,08,30,00,26,16.10
2014,08,30,00,27,16.10
2014,08,30,00,28,16.00
2014,08,30,00,29,16.00
2014,08,30,00,30,16.00
2014,08,30,00,31,16.00
2014,08,30,00,32,15.90
2014,08,30,00,33,15.90
2014,08,30,00,34,15.90
2014,08,30,00,35,15.90
2014,08,30,00,36,15.80
2014,08,30,00,37,15.80
2014,08,30,00,38,15.80
2014,08,30,00,39,15.80
2014,08,30,00,40,15.80
2014,08,30,00,41,15.80
2014,08,30,00,42,15.80
2014,08,30,00,43,15.80
2014,08,30,00,44,15.70
2014,08,30,00,45,15.70
2014,08,30,00,46,15.70
2014,08,30,00,47,15.70
2014,08,30,00,48,15.70
2014,08,30,00,49,15.70
2014,08,30,00,50,15.70
2014,08,30,00,51,15.70
2014,08,30,00,52,15.70
2014,08,30,00,53,15.70
2014,08,30,00,54,15.70
2014,08,30,00,55,15.70
2014,08,30,00,56,15.70
2014,08,30,00,57,15.70
2014,08,30,00,58,15.70
2014,08,30,00,59,15.70
2014,08,30,01,00,15.60
2014,08,30,01,01,15.60
2014,08,30,01,02,15.60
2014,08,30,01,03,15.60
2014,08,30,01,04,15.60
2014,08,30,01,05,15.60
2014,08,30,01,06,15.70
2014,08,30,01,07,15.70
2014,08,30,01,08,15.60
2014,08,30,01,09,15.60
2014,08,30,01,10,15.60
2014,08,30,01,11,15.60
2014,08,30,01,12,15.60
2014,08,30,01,13,15.60
2014,08,30,01,14,15.60
2014,08,30,01,15,15.60
2014,08,30,01,16,15.60
2014,08,30,01,17,15.60
2014,08,30,01,18,15.60
2014,08,30,01,19,15.60
2014,08,30,01,20,15.70
2014,08,30,01,21,15.70
2014,08,30,01,22,15.70
2014,08,30,01,23,15.70
2014,08,30,01,24,15.70
2014,08,30,01,25,15.70
2014,08,30,01,26,15.70
2014,08,30,01,27,15.70
2014,08,30,01,28,15.70
2014,08,30,01,29,15.70
2014,08,30,01,30,15.70
2014,08,30,01,31,15.70
2014,08,30,01,32,15.60
2014,08,30,01,33,15.60
2014,08,30,01,34,15.60
2014,08,30,01,35,15.60
2014,08,30,01,36,15.60
2014,08,30,01,37,15.60
2014,08,30,01,38,15.60
2014,08,30,01,39,15.60
2014,08,30,01,40,15.60
2014,08,30,01,41,15.60
2014,08,30,01,42,15.70
2014,08,30,01,43,15.70
2014,08,30,01,44,15.70
2014,08,30,01,45,15.70
2014,08,30,01,46,15.60
2014,08,30,01,47,15.60
2014,08,30,01,48,15.60
2014,08,30,01,49,15.60
2014,08,30,01,50,15.60
2014,08,30,01,51,15.60
2014,08,30,01,52,15.60
2014,08,30,01,53,15.60
2014,08,30,01,54,15.70
2014,08,30,01,55,15.70
2014,08,30,01,56,15.70
2014,08,30,01,57,15.70
2014,08,30,01,58,15.70
2014,08,30,01,59,15.70
2014,08,30,02,00,15.70
2014,08,30,02,01,15.70
2014,08,30,02,02,15.60
2014,08,30,02,03,15.60
2014,08,30,02,04,15.60
2014,08,30,02,05,15.60
2014,08,30,02,06,15.60
2014,08,30,02,07,15.60
2014,08,30,02,08,15.60
2014,08,30,02,09,15.60
2014,08,30,02,10,15.60
2014,08,30,02,11,15.60
2014,08,30,02,12,15.60
2014,08,30,02,13,15.60
2014,08,30,02,14,15.50
2014,08,30,02,15,15.50
2014,08,30,02,16,15.50
2014,08,30,02,17,15.60
2014,08,30,02,18,15.60
2014,08,30,02,19,15.60
2014,08,30,02,20,15.60
2014,08,30,02,21,15.60
2014,08,30,02,22,15.70
2014,08,30,02,23,15.70
2014,08,30,02,24,15.70
2014,08,30,02,25,15.70
2014,08,30,02,26,15.70
2014,08,30,02,27,15.70
2014,08,30,02,28,15.70
2014,08,30,02,29,15.70
2014,08,30,02,30,15.70
2014,08,30,02,31,15.70
2014,08,30,02,32,15.70
2014,08,30,02,33,15.70
2014,08,30,02,34,15.70
2014,08,30,02,35,15.70
2014,08,30,02,36,15.70
2014,08,30,02,37,15.70
2014,08,30,02,38,15.70
2014,08,30,02,39,15.70
2014,08,30,02,40,15.70
2014,08,30,02,41,15.70
2014,08,30,02,42,15.70
2014,08,30,02,43,15.70
2014,08,30,02,44,15.70
2014,08,30,02,45,15.70
2014,08,30,02,46,15.70
2014,08,30,02,47,15.70
2014,08,30,02,48,15.70
2014,08,30,02,49,15.70
2014,08,30,02,50,15.70
2014,08,30,02,51,15.70
2014,08,30,02,52,15.70
2014,08,30,02,53,15.70
2014,08,30,02,54,15.70
2014,08,30,02,55,15.70
2014,08,30,02,56,15.70
2014,08,30,02,57,15.70
2014,08,30,02,58,15.70
2014,08,30,02,59,15.60
2014,08,30,03,00,15.60
2014,08,30,03,01,15.60
2014,08,30,03,02,15.60
2014,08,30,03,03,15.60
2014,08,30,03,04,15.60
2014,08,30,03,05,15.60
2014,08,30,03,06,15.60
2014,08,30,03,07,15.60
2014,08,30,03,08,15.60
2014,08,30,03,09,15.60
2014,08,30,03,10,15.60
2014,08,30,03,11,15.60
2014,08,30,03,12,15.60
2014,08,30,03,13,15.60
2014,08,30,03,14,15.60
2014,08,30,03,15,15.70
2014,08,30,03,16,15.70
2014,08,30,03,17,15.70
2014,08,30,03,18,15.70
2014,08,30,03,19,15.70
2014,08,30,03,20,15.60
2014,08,30,03,21,15.70
2014,08,30,03,22,15.70
2014,08,30,03,23,15.70
2014,08,30,03,24,15.70
2014,08,30,03,25,15.70
2014,08,30,03,26,15.70
2014,08,30,03,27,15.70
2014,08,30,03,28,15.70
2014,08,30,03,29,15.70
2014,08,30,03,30,15.70
2014,08,30,03,31,15.70
2014,08,30,03,32,15.70
2014,08,30,03,33,15.70
2014,08,30,03,34,15.70
2014,08,30,03,35,15.70
2014,08,30,03,36,15.70
2014,08,30,03,37,15.70
2014,08,30,03,38,15.70
2014,08,30,03,39,15.60
2014,08,30,03,40,15.60
2014,08,30,03,41,15.60
2014,08,30,03,42,15.60
2014,08,30,03,43,15.60
2014,08,30,03,44,15.60
2014,08,30,03,45,15.50
2014,08,30,03,46,15.50
2014,08,30,03,47,15.50
2014,08,30,03,48,15.50
2014,08,30,03,49,15.50
2014,08,30,03,50,15.50
2014,08,30,03,51,15.60
2014,08,30,03,52,15.60
2014,08,30,03,53,15.60
2014,08,30,03,54,15.60
2014,08,30,03,55,15.60
2014,08,30,03,56,15.60
2014,08,30,03,57,15.60
2014,08,30,03,58,15.60
2014,08,30,03,59,15.60
2014,08,30,04,00,15.50
2014,08,30,04,01,15.50
2014,08,30,04,02,15.50
2014,08,30,04,03,15.50
2014,08,30,04,04,15.50
2014,08,30,04,05,15.50
2014,08,30,04,06,15.50
2014,08,30,04,07,15.50
2014,08,30,04,08,15.50
2014,08,30,04,09,15.50
2014,08,30,04,10,15.50
2014,08,30,04,11,15.50
2014,08,30,04,12,15.50
2014,08,30,04,13,15.50
2014,08,30,04,14,15.40
2014,08,30,04,15,15.40
2014,08,30,04,16,15.50
2014,08,30,04,17,15.50
2014,08,30,04,18,15.50
2014,08,30,04,19,15.50
2014,08,30,04,20,15.50
2014,08,30,04,21,15.50
2014,08,30,04,22,15.60
2014,08,30,04,23,15.60
2014,08,30,04,24,15.60
2014,08,30,04,25,15.60
2014,08,30,04,26,15.70
2014,08,30,04,27,15.70
2014,08,30,04,28,15.70
2014,08,30,04,29,15.70
2014,08,30,04,30,15.70
2014,08,30,04,31,15.70
2014,08,30,04,32,15.70
2014,08,30,04,33,15.70
2014,08,30,04,34,15.70
2014,08,30,04,35,15.70
2014,08,30,04,36,15.70
2014,08,30,04,37,15.70
2014,08,30,04,38,15.70
2014,08,30,04,39,15.60
2014,08,30,04,40,15.60
2014,08,30,04,41,15.60
2014,08,30,04,42,15.60
2014,08,30,04,43,15.60
2014,08,30,04,44,15.60
2014,08,30,04,45,15.50
2014,08,30,04,46,15.50
2014,08,30,04,47,15.50
2014,08,30,04,48,15.50
2014,08,30,04,49,15.50
2014,08,30,04,50,15.50
2014,08,30,04,51,15.60
2014,08,30,04,52,15.50
2014,08,30,04,53,15.50
2014,08,30,04,54,15.50
2014,08,30,04,55,15.50
2014,08,30,04,56,15.40
2014,08,30,04,57,15.40
2014,08,30,04,58,15.40
2014,08,30,04,59,15.40
2014,08,30,05,00,15.40
2014,08,30,05,01,15.30
2014,08,30,05,02,15.40
2014,08,30,05,03,15.40
2014,08,30,05,04,15.40
2014,08,30,05,05,15.40
2014,08,30,05,06,15.40
2014,08,30,05,07,15.40
2014,08,30,05,08,15.30
2014,08,30,05,09,15.30
2014,08,30,05,10,15.30
2014,08,30,05,11,15.20
2014,08,30,05,12,15.20
2014,08,30,05,13,15.10
2014,08,30,05,14,15.00
2014,08,30,05,15,15.00
2014,08,30,05,16,15.00
2014,08,30,05,17,15.00
2014,08,30,05,18,15.00
2014,08,30,05,19,15.00
2014,08,30,05,20,15.00
2014,08,30,05,21,15.00
2014,08,30,05,22,15.00
2014,08,30,05,23,15.00
2014,08,30,05,24,14.90
2014,08,30,05,25,14.90
2014,08,30,05,26,14.80
2014,08,30,05,27,14.80
2014,08,30,05,28,14.80
2014,08,30,05,29,14.80
2014,08,30,05,30,14.70
2014,08,30,05,31,14.70
2014,08,30,05,32,14.70
2014,08,30,05,33,14.70
2014,08,30,05,34,14.70
2014,08,30,05,35,14.70
2014,08,30,05,36,14.70
2014,08,30,05,37,14.60
2014,08,30,05,38,14.60
2014,08,30,05,39,14.70
2014,08,30,05,40,14.70
2014,08,30,05,41,14.70
2014,08,30,05,42,14.70
2014,08,30,05,43,14.80
2014,08,30,05,44,14.80
2014,08,30,05,45,14.80
2014,08,30,05,46,14.90
2014,08,30,05,47,15.00
2014,08,30,05,48,15.00
2014,08,30,05,49,15.00
2014,08,30,05,50,15.00
2014,08,30,05,51,15.00
2014,08,30,05,52,15.10
2014,08,30,05,53,15.10
2014,08,30,05,54,15.10
2014,08,30,05,55,15.10
2014,08,30,05,56,15.00
2014,08,30,05,57,15.00
2014,08,30,05,58,15.00
2014,08,30,05,59,15.00
2014,08,30,06,00,15.00
2014,08,30,06,01,15.00
2014,08,30,06,02,14.90
2014,08,30,06,03,14.90
2014,08,30,06,04,14.80
2014,08,30,06,05,14.80
2014,08,30,06,06,14.80
2014,08,30,06,07,14.70
2014,08,30,06,08,14.70
2014,08,30,06,09,14.70
2014,08,30,06,10,14.70
2014,08,30,06,11,14.70
2014,08,30,06,12,14.70
2014,08,30,06,13,14.60
2014,08,30,06,14,14.60
2014,08,30,06,15,14.60
2014,08,30,06,16,14.60
2014,08,30,06,17,14.50
2014,08,30,06,18,14.50
2014,08,30,06,19,14.50
2014,08,30,06,20,14.40
2014,08,30,06,21,14.40
2014,08,30,06,22,14.40
2014,08,30,06,23,14.40
2014,08,30,06,24,14.40
2014,08,30,06,25,14.40
2014,08,30,06,26,14.40
2014,08,30,06,27,14.40
2014,08,30,06,28,14.30
2014,08,30,06,29,14.30
2014,08,30,06,30,14.30
2014,08,30,06,31,14.30
2014,08,30,06,32,14.30
2014,08,30,06,33,14.30
2014,08,30,06,34,14.30
2014,08,30,06,35,14.30
2014,08,30,06,36,14.30
2014,08,30,06,37,14.20
2014,08,30,06,38,14.20
2014,08,30,06,39,14.20
2014,08,30,06,40,14.20
2014,08,30,06,41,14.20
2014,08,30,06,42,14.20
2014,08,30,06,43,14.20
2014,08,30,06,44,14.20
2014,08,30,06,45,14.20
2014,08,30,06,46,14.10
2014,08,30,06,47,14.10
2014,08,30,06,48,14.10
2014,08,30,06,49,14.10
2014,08,30,06,50,14.10
2014,08,30,06,51,14.10
2014,08,30,06,52,14.10
2014,08,30,06,53,14.10
2014,08,30,06,54,14.00
2014,08,30,06,55,14.00
2014,08,30,06,56,14.00
2014,08,30,06,57,14.00
2014,08,30,06,58,14.00
2014,08,30,06,59,14.00
2014,08,30,07,00,14.10
2014,08,30,07,01,14.20
2014,08,30,07,02,14.30
2014,08,30,07,03,14.30
2014,08,30,07,04,14.40
2014,08,30,07,05,14.40
2014,08,30,07,06,14.50
2014,08,30,07,07,14.50
2014,08,30,07,08,14.60
2014,08,30,07,09,14.70
2014,08,30,07,10,14.80
2014,08,30,07,11,14.80
2014,08,30,07,12,14.90
2014,08,30,07,13,14.90
2014,08,30,07,14,15.00
2014,08,30,07,15,15.00
2014,08,30,07,16,15.00
2014,08,30,07,17,15.00
2014,08,30,07,18,15.00
2014,08,30,07,19,15.00
2014,08,30,07,20,15.00
2014,08,30,07,21,15.10
2014,08,30,07,22,15.10
2014,08,30,07,23,15.20
2014,08,30,07,24,15.20
2014,08,30,07,25,15.30
2014,08,30,07,26,15.30
2014,08,30,07,27,15.30
2014,08,30,07,28,15.40
2014,08,30,07,29,15.40
2014,08,30,07,30,15.50
2014,08,30,07,31,15.50
2014,08,30,07,32,15.60
2014,08,30,07,33,15.60
2014,08,30,07,34,15.70
2014,08,30,07,35,15.70
2014,08,30,07,36,15.80
2014,08,30,07,37,15.80
2014,08,30,07,38,15.80
2014,08,30,07,39,15.90
2014,08,30,07,40,16.00
2014,08,30,07,41,16.00
2014,08,30,07,42,16.00
2014,08,30,07,43,16.10
2014,08,30,07,44,16.10
2014,08,30,07,45,16.10
2014,08,30,07,46,16.10
2014,08,30,07,47,16.10
2014,08,30,07,48,16.20
2014,08,30,07,49,16.20
2014,08,30,07,50,16.20
2014,08,30,07,51,16.30
2014,08,30,07,52,16.30
2014,08,30,07,53,16.30
2014,08,30,07,54,16.30
2014,08,30,07,55,16.30
2014,08,30,07,56,16.30
2014,08,30,07,57,16.30
2014,08,30,07,58,16.30
2014,08,30,07,59,16.30
2014,08,30,08,00,16.20
2014,08,30,08,01,16.20
2014,08,30,08,02,16.20
2014,08,30,08,03,16.20
2014,08,30,08,04,16.20
2014,08,30,08,05,16.20
2014,08,30,08,06,16.20
2014,08,30,08,07,16.20
2014,08,30,08,08,16.20
2014,08,30,08,09,16.30
2014,08,30,08,10,16.30
2014,08,30,08,11,16.30
2014,08,30,08,12,16.30
2014,08,30,08,13,16.30
2014,08,30,08,14,16.30
2014,08,30,08,15,16.30
2014,08,30,08,16,16.30
2014,08,30,08,17,16.40
2014,08,30,08,18,16.40
2014,08,30,08,19,16.40
2014,08,30,08,20,16.40
2014,08,30,08,21,16.40
2014,08,30,08,22,16.40
2014,08,30,08,23,16.40
2014,08,30,08,24,16.40
2014,08,30,08,25,16.40
2014,08,30,08,26,16.40
2014,08,30,08,27,16.40
2014,08,30,08,28,16.40
2014,08,30,08,29,16.40
2014,08,30,08,30,16.40
2014,08,30,08,31,16.50
2014,08,30,08,32,16.50
2014,08,30,08,33,16.50
2014,08,30,08,34,16.50
2014,08,30,08,35,16.60
2014,08,30,08,36,16.60
2014,08,30,08,37,16.60
2014,08,30,08,38,16.60
2014,08,30,08,39,16.60
2014,08,30,08,40,16.60
2014,08,30,08,41,16.60
2014,08,30,08,42,16.60
2014,08,30,08,43,16.60
2014,08,30,08,44,16.50
2014,08,30,08,45,16.50
2014,08,30,08,46,16.40
2014,08,30,08,47,16.40
2014,08,30,08,48,16.40
2014,08,30,08,49,16.40
2014,08,30,08,50,16.40
2014,08,30,08,51,16.40
2014,08,30,08,52,16.40
2014,08,30,08,53,16.40
2014,08,30,08,54,16.40
2014,08,30,08,55,16.40
2014,08,30,08,56,16.40
2014,08,30,08,57,16.50
2014,08,30,08,58,16.50
2014,08,30,08,59,16.50
2014,08,30,09,00,16.60
2014,08,30,09,01,16.60
2014,08,30,09,02,16.60
2014,08,30,09,03,16.70
2014,08,30,09,04,16.70
2014,08,30,09,05,16.80
2014,08,30,09,06,16.80
2014,08,30,09,07,16.90
2014,08,30,09,08,16.90
2014,08,30,09,09,17.00
2014,08,30,09,10,17.00
2014,08,30,09,11,17.10
2014,08,30,09,12,17.00
2014,08,30,09,13,17.00
2014,08,30,09,14,16.90
2014,08,30,09,15,16.80
2014,08,30,09,16,16.70
2014,08,30,09,17,16.70
2014,08,30,09,18,16.70
2014,08,30,09,19,16.70
2014,08,30,09,20,16.70
2014,08,30,09,21,16.70
2014,08,30,09,22,16.70
2014,08,30,09,23,16.70
2014,08,30,09,24,16.70
2014,08,30,09,25,16.70
2014,08,30,09,26,16.60
2014,08,30,09,27,16.60
2014,08,30,09,28,16.60
2014,08,30,09,29,16.60
2014,08,30,09,30,16.60
2014,08,30,09,31,16.60
2014,08,30,09,32,16.60
2014,08,30,09,33,16.60
2014,08,30,09,34,16.60
2014,08,30,09,35,16.70
2014,08,30,09,36,16.70
2014,08,30,09,37,16.80
2014,08,30,09,38,16.80
2014,08,30,09,39,16.90
2014,08,30,09,40,16.90
2014,08,30,09,41,17.00
2014,08,30,09,42,17.00
2014,08,30,09,43,17.10
2014,08,30,09,44,17.10
2014,08,30,09,45,17.10
2014,08,30,09,46,17.10
2014,08,30,09,47,17.20
2014,08,30,09,48,17.20
2014,08,30,09,49,17.20
2014,08,30,09,50,17.30
2014,08,30,09,51,17.30
2014,08,30,09,52,17.30
2014,08,30,09,53,17.30
2014,08,30,09,54,17.40
2014,08,30,09,55,17.40
2014,08,30,09,56,17.50
2014,08,30,09,57,17.50
2014,08,30,09,58,17.50
2014,08,30,09,59,17.50
2014,08,30,10,00,17.50
2014,08,30,10,01,17.40
2014,08,30,10,02,17.40
2014,08,30,10,03,17.30
2014,08,30,10,04,17.20
2014,08,30,10,05,17.20
2014,08,30,10,06,17.20
2014,08,30,10,07,17.10
2014,08,30,10,08,17.10
2014,08,30,10,09,17.10
2014,08,30,10,10,17.10
2014,08,30,10,11,17.10
2014,08,30,10,12,17.10
2014,08,30,10,13,17.20
2014,08,30,10,14,17.20
2014,08,30,10,15,17.20
2014,08,30,10,16,17.20
2014,08,30,10,17,17.20
2014,08,30,10,18,17.10
2014,08,30,10,19,17.10
2014,08,30,10,20,17.10
2014,08,30,10,21,17.10
2014,08,30,10,22,17.10
2014,08,30,10,23,17.10
2014,08,30,10,24,17.10
2014,08,30,10,25,17.10
2014,08,30,10,26,17.10
2014,08,30,10,27,17.10
2014,08,30,10,28,17.10
2014,08,30,10,29,17.10
2014,08,30,10,30,17.10
2014,08,30,10,31,17.10
2014,08,30,10,32,17.10
2014,08,30,10,33,17.10
2014,08,30,10,34,17.10
2014,08,30,10,35,17.20
2014,08,30,10,36,17.20
2014,08,30,10,37,17.20
2014,08,30,10,38,17.20
2014,08,30,10,39,17.10
2014,08,30,10,40,17.10
2014,08,30,10,41,17.10
2014,08,30,10,42,17.10
2014,08,30,10,43,17.20
2014,08,30,10,44,17.20
2014,08,30,10,45,17.30
2014,08,30,10,46,17.30
2014,08,30,10,47,17.30
2014,08,30,10,48,17.40
2014,08,30,10,49,17.50
2014,08,30,10,50,17.50
2014,08,30,10,51,17.60
2014,08,30,10,52,17.60
2014,08,30,10,53,17.70
2014,08,30,10,54,17.70
2014,08,30,10,55,17.80
2014,08,30,10,56,17.80
2014,08,30,10,57,17.90
2014,08,30,10,58,18.00
2014,08,30,10,59,18.00
2014,08,30,11,00,18.10
2014,08,30,11,01,18.20
2014,08,30,11,02,18.20
2014,08,30,11,03,18.30
2014,08,30,11,04,18.30
2014,08,30,11,05,18.40
2014,08,30,11,06,18.50
2014,08,30,11,07,18.60
2014,08,30,11,08,18.70
2014,08,30,11,09,18.80
2014,08,30,11,10,18.90
2014,08,30,11,11,19.00
2014,08,30,11,12,19.10
2014,08,30,11,13,19.00
2014,08,30,11,14,19.10
2014,08,30,11,15,19.00
2014,08,30,11,16,19.00
2014,08,30,11,17,18.90
2014,08,30,11,18,18.80
2014,08,30,11,19,18.70
2014,08,30,11,20,18.60
2014,08,30,11,21,18.50
2014,08,30,11,22,18.30
2014,08,30,11,23,18.10
2014,08,30,11,24,17.90
2014,08,30,11,25,17.80
2014,08,30,11,26,17.70
2014,08,30,11,27,17.60
2014,08,30,11,28,17.60
2014,08,30,11,29,17.50
2014,08,30,11,30,17.50
2014,08,30,11,31,17.50
2014,08,30,11,32,17.50
2014,08,30,11,33,17.60
2014,08,30,11,34,17.70
2014,08,30,11,35,17.80
2014,08,30,11,36,17.90
2014,08,30,11,37,18.00
2014,08,30,11,38,18.10
2014,08,30,11,39,18.30
2014,08,30,11,40,18.50
2014,08,30,11,41,18.60
2014,08,30,11,42,18.80
2014,08,30,11,43,18.90
2014,08,30,11,44,19.10
2014,08,30,11,45,19.30
2014,08,30,11,46,19.40
2014,08,30,11,47,19.60
2014,08,30,11,48,19.70
2014,08,30,11,49,19.80
2014,08,30,11,50,19.90
2014,08,30,11,51,20.00
2014,08,30,11,52,20.10
2014,08,30,11,53,20.20
2014,08,30,11,54,20.20
2014,08,30,11,55,20.20
2014,08,30,11,56,20.20
2014,08,30,11,57,20.10
2014,08,30,11,58,20.00
2014,08,30,11,59,19.90
2014,08,30,12,00,19.80
2014,08,30,12,01,19.70
2014,08,30,12,02,19.60
2014,08,30,12,03,19.50
2014,08,30,12,04,19.40
2014,08,30,12,05,19.30
2014,08,30,12,06,19.10
2014,08,30,12,07,19.00
2014,08,30,12,08,18.90
2014,08,30,12,09,18.80
2014,08,30,12,10,18.60
2014,08,30,12,11,18.50
2014,08,30,12,12,18.30
2014,08,30,12,13,18.30
2014,08,30,12,14,18.20
2014,08,30,12,15,18.10
2014,08,30,12,16,18.10
2014,08,30,12,17,18.10
2014,08,30,12,18,18.00
2014,08,30,12,19,18.00
2014,08,30,12,20,17.90
2014,08,30,12,21,17.90
2014,08,30,12,22,17.90
2014,08,30,12,23,17.90
2014,08,30,12,24,17.80
2014,08,30,12,25,17.80
2014,08,30,12,26,17.80
2014,08,30,12,27,17.80
2014,08,30,12,28,17.90
2014,08,30,12,29,17.90
2014,08,30,12,30,18.00
2014,08,30,12,31,18.00
2014,08,30,12,32,18.10
2014,08,30,12,33,18.10
2014,08,30,12,34,18.20
2014,08,30,12,35,18.20
2014,08,30,12,36,18.20
2014,08,30,12,37,18.20
2014,08,30,12,38,18.20
2014,08,30,12,39,18.20
2014,08,30,12,40,18.10
2014,08,30,12,41,18.10
2014,08,30,12,42,18.10
2014,08,30,12,43,18.00
2014,08,30,12,44,18.00
2014,08,30,12,45,17.90
2014,08,30,12,46,17.80
2014,08,30,12,47,17.80
2014,08,30,12,48,17.80
2014,08,30,12,49,17.70
2014,08,30,12,50,17.60
2014,08,30,12,51,17.50
2014,08,30,12,52,17.40
2014,08,30,12,53,17.20
2014,08,30,12,54,17.10
2014,08,30,12,55,17.00
2014,08,30,12,56,16.90
2014,08,30,12,57,16.80
2014,08,30,12,58,16.80
2014,08,30,12,59,16.80
2014,08,30,13,00,16.80
2014,08,30,13,01,16.80
2014,08,30,13,02,16.70
2014,08,30,13,03,16.70
2014,08,30,13,04,16.70
2014,08,30,13,05,16.60
2014,08,30,13,06,16.70
2014,08,30,13,07,16.60
2014,08,30,13,08,16.50
2014,08,30,13,09,16.40
2014,08,30,13,10,16.30
2014,08,30,13,11,16.20
2014,08,30,13,12,16.20
2014,08,30,13,13,16.10
2014,08,30,13,14,16.10
2014,08,30,13,15,16.00
2014,08,30,13,16,16.00
2014,08,30,13,17,16.00
2014,08,30,13,18,16.00
2014,08,30,13,19,16.00
2014,08,30,13,20,15.90
2014,08,30,13,21,15.90
2014,08,30,13,22,15.90
2014,08,30,13,23,15.80
2014,08,30,13,24,15.80
2014,08,30,13,25,15.80
2014,08,30,13,26,15.80
2014,08,30,13,27,15.80
2014,08,30,13,28,15.80
2014,08,30,13,29,15.80
2014,08,30,13,30,15.90
2014,08,30,13,31,15.90
2014,08,30,13,32,16.00
2014,08,30,13,33,16.00
2014,08,30,13,34,16.10
2014,08,30,13,35,16.10
2014,08,30,13,36,16.10
2014,08,30,13,37,16.10
2014,08,30,13,38,16.10
2014,08,30,13,39,16.10
2014,08,30,13,40,16.10
2014,08,30,13,41,16.10
2014,08,30,13,42,16.20
2014,08,30,13,43,16.20
2014,08,30,13,44,16.20
2014,08,30,13,45,16.20
2014,08,30,13,46,16.20
2014,08,30,13,47,16.20
2014,08,30,13,48,16.20
2014,08,30,13,49,16.20
2014,08,30,13,50,16.30
2014,08,30,13,51,16.30
2014,08,30,13,52,16.20
2014,08,30,13,53,16.20
2014,08,30,13,54,16.10
2014,08,30,13,55,16.00
2014,08,30,13,56,15.90
2014,08,30,13,57,15.90
2014,08,30,13,58,15.90
2014,08,30,13,59,15.90
2014,08,30,14,00,15.90
2014,08,30,14,01,15.90
2014,08,30,14,02,15.90
2014,08,30,14,03,15.90
2014,08,30,14,04,15.90
2014,08,30,14,05,15.90
2014,08,30,14,06,15.90
2014,08,30,14,07,15.90
2014,08,30,14,08,15.90
2014,08,30,14,09,15.80
2014,08,30,14,10,15.80
2014,08,30,14,11,15.80
2014,08,30,14,12,15.80
2014,08,30,14,13,15.80
2014,08,30,14,14,15.80
2014,08,30,14,15,15.90
2014,08,30,14,16,15.90
2014,08,30,14,17,15.90
2014,08,30,14,18,16.00
2014,08,30,14,19,16.10
2014,08,30,14,20,16.10
2014,08,30,14,21,16.20
2014,08,30,14,22,16.30
2014,08,30,14,23,16.40
2014,08,30,14,24,16.50
2014,08,30,14,25,16.60
2014,08,30,14,26,16.60
2014,08,30,14,27,16.70
2014,08,30,14,28,16.80
2014,08,30,14,29,16.80
2014,08,30,14,30,16.70
2014,08,30,14,31,16.70
2014,08,30,14,32,16.60
2014,08,30,14,33,16.50
2014,08,30,14,34,16.40
2014,08,30,14,35,16.30
2014,08,30,14,36,16.30
2014,08,30,14,37,16.30
2014,08,30,14,38,16.40
2014,08,30,14,39,16.40
2014,08,30,14,40,16.40
2014,08,30,14,41,16.50
2014,08,30,14,42,16.50
2014,08,30,14,43,16.50
2014,08,30,14,44,16.60
2014,08,30,14,45,16.60
2014,08,30,14,46,16.70
2014,08,30,14,47,16.70
2014,08,30,14,48,16.70
2014,08,30,14,49,16.60
2014,08,30,14,50,16.50
2014,08,30,14,51,16.40
2014,08,30,14,52,16.40
2014,08,30,14,53,16.40
2014,08,30,14,54,16.40
2014,08,30,14,55,16.40
2014,08,30,14,56,16.40
2014,08,30,14,57,16.40
2014,08,30,14,58,16.30
2014,08,30,14,59,16.30
2014,08,30,15,00,16.20
2014,08,30,15,01,16.10
2014,08,30,15,02,16.10
2014,08,30,15,03,16.10
2014,08,30,15,04,16.00
2014,08,30,15,05,15.90
2014,08,30,15,06,15.80
2014,08,30,15,07,15.80
2014,08,30,15,08,15.80
2014,08,30,15,09,15.80
2014,08,30,15,10,15.80
2014,08,30,15,11,15.80
2014,08,30,15,12,15.80
2014,08,30,15,13,15.80
2014,08,30,15,14,15.90
2014,08,30,15,15,15.90
2014,08,30,15,16,15.90
2014,08,30,15,17,15.90
2014,08,30,15,18,15.90
2014,08,30,15,19,15.90
2014,08,30,15,20,16.00
2014,08,30,15,21,16.00
2014,08,30,15,22,16.00
2014,08,30,15,23,16.10
2014,08,30,15,24,16.10
2014,08,30,15,25,16.10
2014,08,30,15,26,16.10
2014,08,30,15,27,16.10
2014,08,30,15,28,16.10
2014,08,30,15,29,16.20
2014,08,30,15,30,16.20
2014,08,30,15,31,16.20
2014,08,30,15,32,16.20
2014,08,30,15,33,16.20
2014,08,30,15,34,16.20
2014,08,30,15,35,16.20
2014,08,30,15,36,16.20
2014,08,30,15,37,16.30
2014,08,30,15,38,16.30
2014,08,30,15,39,16.20
2014,08,30,15,40,16.20
2014,08,30,15,41,16.20
2014,08,30,15,42,16.20
2014,08,30,15,43,16.10
2014,08,30,15,44,16.10
2014,08,30,15,45,16.10
2014,08,30,15,46,16.00
2014,08,30,15,47,15.90
2014,08,30,15,48,15.90
2014,08,30,15,49,16.00
2014,08,30,15,50,16.10
2014,08,30,15,51,16.10
2014,08,30,15,52,16.20
2014,08,30,15,53,16.20
2014,08,30,15,54,16.30
2014,08,30,15,55,16.30
2014,08,30,15,56,16.40
2014,08,30,15,57,16.40
2014,08,30,15,58,16.50
2014,08,30,15,59,16.50
2014,08,30,16,00,16.60
2014,08,30,16,01,16.70
2014,08,30,16,02,16.70
2014,08,30,16,03,16.70
2014,08,30,16,04,16.70
2014,08,30,16,05,16.80
2014,08,30,16,06,16.90
2014,08,30,16,07,17.00
2014,08,30,16,08,17.10
2014,08,30,16,09,17.20
2014,08,30,16,10,17.30
2014,08,30,16,11,17.30
2014,08,30,16,12,17.40
2014,08,30,16,13,17.50
2014,08,30,16,14,17.60
2014,08,30,16,15,17.70
2014,08,30,16,16,17.80
2014,08,30,16,17,17.90
2014,08,30,16,18,18.00
2014,08,30,16,19,18.10
2014,08,30,16,20,18.20
2014,08,30,16,21,18.30
2014,08,30,16,22,18.30
2014,08,30,16,23,18.40
2014,08,30,16,24,18.40
2014,08,30,16,25,18.50
2014,08,30,16,26,18.50
2014,08,30,16,27,18.50
2014,08,30,16,28,18.50
2014,08,30,16,29,18.50
2014,08,30,16,30,18.60
2014,08,30,16,31,18.70
2014,08,30,16,32,18.70
2014,08,30,16,33,18.70
2014,08,30,16,34,18.80
2014,08,30,16,35,18.90
2014,08,30,16,36,18.90
2014,08,30,16,37,18.90
2014,08,30,16,38,18.90
2014,08,30,16,39,18.80
2014,08,30,16,40,18.80
2014,08,30,16,41,18.70
2014,08,30,16,42,18.70
2014,08,30,16,43,18.70
2014,08,30,16,44,18.70
2014,08,30,16,45,18.70
2014,08,30,16,46,18.70
2014,08,30,16,47,18.60
2014,08,30,16,48,18.50
2014,08,30,16,49,18.40
2014,08,30,16,50,18.40
2014,08,30,16,51,18.30
2014,08,30,16,52,18.20
2014,08,30,16,53,18.20
2014,08,30,16,54,18.20
2014,08,30,16,55,18.10
2014,08,30,16,56,18.10
2014,08,30,16,57,18.10
2014,08,30,16,58,18.10
2014,08,30,16,59,18.10
2014,08,30,17,00,18.10
2014,08,30,17,01,18.20
2014,08,30,17,02,18.30
2014,08,30,17,03,18.30
2014,08,30,17,04,18.30
2014,08,30,17,05,18.40
2014,08,30,17,06,18.50
2014,08,30,17,07,18.50
2014,08,30,17,08,18.50
2014,08,30,17,09,18.60
2014,08,30,17,10,18.60
2014,08,30,17,11,18.60
2014,08,30,17,12,18.70
2014,08,30,17,13,18.70
2014,08,30,17,14,18.70
2014,08,30,17,15,18.70
2014,08,30,17,16,18.70
2014,08,30,17,17,18.70
2014,08,30,17,18,18.70
2014,08,30,17,19,18.70